Weather in Meshchegarovo

Russia / Republic of Bashkortostan     55°25′20″N   58°12′26″E
temp.,
°C
wind,
m/s
gust,
m/s
humid.,
%
clouds,
%
prec.,
mm/h
press.,
hPa
HPBL,
m
3 march, wed
wed323:00−11sw61687100 0.0 1003583
02:00−10sw61688100 0.0 1001541
05:00−8sw6158996 0.0 1000439
08:00−9ssw5119255 0.0 999259
11:00−3sw6108942 0.0 1000753
14:00−1wsw688699 0.1 999961
17:00−2sw588599 0.3 999630
20:00−6sw3691100 0.0 999102
4 march, thu
thu423:00−7ssw3795100 0.1 1000179
02:00−8ssw3695100 0.0 999113
05:00−8sw41093100 0.1 999316
08:00−9wsw51092100 0.1 1000353
11:00−8wsw6108898 0.1 1001694
14:00−7sw71185100 0.0 1000777
17:00−7sw81485100 0.1 999800
20:00−8sw61589100 0.0 999708
5 march, fri
fri523:00−7ssw61491100 0.1 998764
02:00−7ssw5169491 0.4 996616
05:00−6wsw8158591 0.6 997635
08:00−7sw51191100 0.0 1000401
11:00−4wsw6988100 0.0 1001655
14:00−3sw4595100 0.3 1000455
17:00−2ssw2497100 1.6 1000324
20:00−3ssw2698100 1.5 998288
6 march, sat
sat623:00−5n61196100 4.2 999437
02:00−7wnw61094100 2.3 1003573
05:00−15w5109575 2.3 1009199
08:00−18wsw359786 0.0 1012112
11:00−15w599292 0.0 1013447
14:00−11wsw4688100 0.0 1013600
17:00−11wsw2488100 0.1 1012494
20:00−15w0094100 0.0 101120
7 march, sun
sun723:00−16ne2293100 0.0 101120
02:00−17nne2294100 0.0 100920
05:00−19n229898 0.0 101020
08:00−22wnw0110010 0.0 101020
11:00−15ssw22905 0.0 1010195
14:00−9sw357739 0.0 1010593
17:00−9wsw578447 0.0 1010637
20:00−16sw349339 0.0 101263